Montreal, Quebec

1:01 PM EDT on April 25, 2017 (GMT -0400)
Montreal International (Dorval)

Weather History for CYUL - November, 2012

Change the Weather History Date:

Sunday, November 11, 2012

  Actual Average Record
Temperature  
Mean Temperature 38 °F -  
Max Temperature 44 °F 36 °F 64 °F (2002)
Min Temperature 32 °F 22 °F 21 °F (2007)
Degree Days  
Heating Degree Days 27    
Moisture  
Dew Point 29 °F    
Average Humidity 74    
Maximum Humidity 93    
Minimum Humidity 34    
Precipitation  
Precipitation 0.02 in 0.12 in - ()
Sea Level Pressure  
Sea Level Pressure 30.32 in    
Wind  
Wind Speed 9 mph ()    
Max Wind Speed 15 mph    
Max Gust Speed 20 mph    
Visibility 14.9 miles    
Events Rain    
Averages and records for this station are not official NWS values.
T = Trace of Precipitation, MM = Missing Value Source: Averaged Metar Reports

Daily Weather History Graph

Daily Weather History Graph

Search for Another Location

Airport or City:

Trip Planner

Search our weather history database for the weather conditions in past years. The results will help you decide how hot, cold, wet, or windy it might be!

Date:

Astronomy

Nov. 11, 2012 Rise Set
Actual Time 6:49 AM EST 4:28 PM EST
Civil Twilight 6:17 AM EST 5:00 PM EST
Nautical Twilight 5:41 AM EST 5:35 PM EST
Astronomical Twilight 5:06 AM EST 6:10 PM EST
Moon 3:53 AM EST (11/11) 2:55 PM EST (11/11)
Length of Visible Light 10h 43m
Length of Day
9h 39m
Waning Crescent, 7% of the Moon is Illuminated
Nov 11
Waning Crescent
Nov 13
New
Nov 20
First Quarter
Nov 28
Full
Dec 6
Last Quarter

Hourly Weather History & Observations

Time (EST) Temp. Windchill Dew Point Humidity Pressure Visibility Wind Dir Wind Speed Gust Speed Precip Events Conditions
12:00 AM 35.6 °F 31.7 °F 19.4 °F 52% 30.39 in 15.0 mi ENE 4.6 mph - N/A   Mostly Cloudy
1:00 AM 37 °F - 19 °F 34% 30.36 in 15 mi East 8.1 mph - -   Mostly Cloudy
1:00 AM 37.4 °F 31.4 °F 19.4 °F 48% 30.36 in 15.0 mi East 8.1 mph - N/A   Mostly Cloudy
2:00 AM 37.4 °F 32.1 °F 17.6 °F 45% 30.35 in 15.0 mi NE 6.9 mph - N/A   Overcast
3:00 AM 37.4 °F 30.3 °F 17.6 °F 45% 30.33 in 15.0 mi East 10.4 mph - N/A   Overcast
3:38 AM 35.6 °F 29.2 °F - N/A% - 15.0 mi North 8.1 mph - N/A   Overcast
4:00 AM 33.8 °F 24.8 °F 24.8 °F 70% 30.36 in 15.0 mi North 12.7 mph - N/A   Overcast
4:35 AM 33.8 °F 24.3 °F - N/A% - 12.0 mi NNE 13.8 mph - N/A Rain Light Rain
5:00 AM 32.0 °F 22.5 °F 24.8 °F 75% 30.32 in 15.0 mi NE 12.7 mph - N/A Rain Light Rain
6:00 AM 33.8 °F 25.8 °F 28.4 °F 81% 30.33 in 15.0 mi NNE 10.4 mph - N/A Rain Light Rain
6:25 AM 33.8 °F 24.8 °F - N/A% - 15.0 mi NNE 12.7 mph - N/A   Overcast
7:00 AM 33 °F - 28 °F 76% 30.35 in 15 mi NNE 13.8 mph - - Rain Light Rain
7:00 AM 33.8 °F 24.3 °F 28.4 °F 81% 30.35 in 15.0 mi NNE 13.8 mph 19.6 mph N/A   Overcast
8:00 AM 33.8 °F 24.8 °F 28.4 °F 81% 30.36 in 15.0 mi NNE 12.7 mph - N/A   Overcast
9:00 AM 33.8 °F 24.8 °F 28.4 °F 81% 30.34 in 15.0 mi NNE 12.7 mph - N/A   Overcast
9:25 AM 33.8 °F 25.3 °F - N/A% - 15.0 mi NE 11.5 mph - N/A Rain Light Rain Showers
10:00 AM 35.6 °F 28.0 °F 30.2 °F 81% 30.35 in 15.0 mi NNE 10.4 mph - N/A Rain Light Rain Showers
10:17 AM 37.4 °F 29.8 °F - N/A% - 15.0 mi NNE 11.5 mph - N/A   Mostly Cloudy
11:00 AM 37.4 °F 28.9 °F 32.0 °F 81% 30.32 in 15.0 mi NNE 13.8 mph - N/A Rain Light Rain Showers
11:26 AM 37.4 °F 29.3 °F - N/A% - 15.0 mi North 12.7 mph - N/A   Mostly Cloudy
12:00 PM 39.2 °F 30.8 °F 32.0 °F 75% 30.30 in 15.0 mi NNE 15.0 mph - N/A   Mostly Cloudy
1:00 PM 42 °F - 35 °F 66% 30.29 in 28 mi NNE 10.4 mph - -   Partly Cloudy
1:00 PM 42.8 °F 37.0 °F 33.8 °F 70% 30.29 in 30.0 mi North 10.4 mph - N/A   Partly Cloudy
2:00 PM 42.8 °F 36.2 °F 35.6 °F 76% 30.28 in 30.0 mi NNE 12.7 mph - N/A   Partly Cloudy
3:00 PM 44.6 °F 38.8 °F 35.6 °F 71% 30.28 in 30.0 mi NNE 11.5 mph - N/A   Partly Cloudy
4:00 PM 44.6 °F 38.4 °F 35.6 °F 71% 30.28 in 15.0 mi NNE 12.7 mph - N/A   Mostly Cloudy
5:00 PM 41.0 °F 34.7 °F 35.6 °F 81% 30.29 in 15.0 mi NNE 10.4 mph - N/A   Mostly Cloudy
6:00 PM 37.4 °F 31.4 °F 33.8 °F 87% 30.30 in 15.0 mi North 8.1 mph - N/A   Scattered Clouds
7:00 PM 35 °F - 32 °F 86% 30.30 in 15 mi North 9.2 mph - -   Clear
7:00 PM 35.6 °F 28.0 °F 32.0 °F 87% 30.30 in 15.0 mi NNE 10.4 mph - N/A   Partly Cloudy
8:00 PM 35.6 °F 28.6 °F 32.0 °F 87% 30.30 in 15.0 mi NNE 9.2 mph - N/A   Partly Cloudy
9:00 PM 33.8 °F 26.4 °F 32.0 °F 93% 30.30 in 15.0 mi NNE 9.2 mph - N/A   Partly Cloudy
10:00 PM 33.8 °F 27.0 °F 32.0 °F 93% 30.28 in 15.0 mi NNE 8.1 mph - N/A   Clear
11:00 PM 33.8 °F 26.4 °F 32.0 °F 93% 30.27 in 15.0 mi North 9.2 mph - N/A   Clear